Tracking 29892 objects as of 21-Nov-2024
HD Live streaming from Space Station
objects crossing your sky now

STARLINK-31864

Track STARLINK-31864 now!
10-day predictions
STARLINK-31864 is classified as:


NORAD ID: 60025
Int'l Code: 2024-111K
Perigee: 481.5 km
Apogee: 483.2 km
Inclination: 53.2 °
Period: 94.1 minutes
Semi major axis: 6853 km
RCS: Unknown
Launch date: June 8, 2024
Source: United States (US)
Launch site: AIR FORCE EASTERN TEST RANGE (AFETR)
Your satellite tracking list
Your tracking list is empty




NASA's NSSDC Master Catalog

Two Line Element Set (TLE):
1 60025U 24111K   24325.80257401  .00000938  00000-0  43787-4 0  9998
2 60025  53.1592 117.1075 0001245  92.8458 267.2685 15.30192346 26479
Source of the keplerian elements: AFSPC